Sauk Centre, MN

11:40 AM CST on December 12, 2019 (GMT -0600)
Sauk Centre

Weather History for KD39 - October, 2019

Change the Weather History Date:

Sunday, October 27, 2019

  Actual Average (WUND) Record (WUND)
Temperature  
Mean Temperature 34 °F -  
Max Temperature 40 °F - - (-1)
Min Temperature 28 °F - - (-1)
Degree Days  
Heating Degree Days 31    
Moisture  
Dew Point 29 °F    
Average Humidity 74    
Maximum Humidity 83    
Minimum Humidity 59    
Precipitation  
Precipitation 0.00 in - - ()
Sea Level Pressure  
Sea Level Pressure 29.93 in    
Wind  
Wind Speed 13 mph ()    
Max Wind Speed 22 mph    
Max Gust Speed 28 mph    
Visibility 10.0 miles    
Events      
Averages and records for this station are not official NWS values.
T = Trace of Precipitation, MM = Missing Value Source: Averaged Metar Reports

Daily Weather History Graph

Daily Weather History Graph

Search for Another Location

Airport or City:

Astronomy

Oct. 27, 2019 Rise Set
Actual Time 7:52 AM CDT 6:14 PM CDT
Civil Twilight 7:21 AM CDT 6:44 PM CDT
Nautical Twilight 6:46 AM CDT 7:19 PM CDT
Astronomical Twilight 6:12 AM CDT 7:53 PM CDT
Moon 6:56 AM CDT (10/27) 6:27 PM CDT (10/27)
Length of Visible Light 11h 23m
Length of Day
10h 21m
Waning Crescent, 0% of the Moon is Illuminated
Oct 27
Waning Crescent
Oct 27
New
Nov 4
First Quarter
Nov 12
Full
Nov 19
Last Quarter

Hourly Weather History & Observations

Time (CDT) Temp. Windchill Dew Point Humidity Pressure Visibility Wind Dir Wind Speed Gust Speed Precip Events Conditions
12:15 AM 40.5 °F 34.1 °F 35.6 °F 83% 29.72 in 10.0 mi NNW 10.4 mph - N/A   Clear
12:20 AM 40.3 °F 33.4 °F 35.2 °F 82% 29.71 in 10.0 mi NNW 11.5 mph - N/A   Clear
12:38 AM 39.6 °F 33.0 °F 34.7 °F 83% 29.70 in 10.0 mi NNW 10.4 mph - N/A   Clear
12:55 AM 39.4 °F 32.3 °F 34.5 °F 83% 29.71 in 10.0 mi NNW 11.5 mph - N/A   Clear
1:15 AM 39.0 °F 32.8 °F 34.3 °F 83% 29.72 in 10.0 mi NNW 9.2 mph - N/A   Scattered Clouds
1:16 AM 39.0 °F 32.8 °F 34.3 °F 83% 29.72 in 10.0 mi NNW 9.2 mph - N/A   Scattered Clouds
1:35 AM 39.6 °F 34.0 °F 34.9 °F 83% 29.72 in 10.0 mi NW 8.1 mph - N/A   Mostly Cloudy
1:36 AM 39.6 °F 33.5 °F 34.9 °F 83% 29.72 in 10.0 mi NW 9.2 mph - N/A   Overcast
1:58 AM 40.1 °F 33.6 °F 35.1 °F 82% 29.74 in 10.0 mi NW 10.4 mph - N/A   Overcast
2:16 AM 40.6 °F 34.3 °F 35.1 °F 80% 29.75 in 10.0 mi NW 10.4 mph - N/A   Overcast
2:35 AM 40.6 °F 33.4 °F 34.9 °F 80% 29.74 in 10.0 mi NW 12.7 mph - N/A   Overcast
2:36 AM 40.6 °F 33.8 °F 34.9 °F 80% 29.74 in 10.0 mi NW 11.5 mph - N/A   Overcast
2:55 AM 40.6 °F 33.0 °F 34.7 °F 79% 29.77 in 10.0 mi NW 13.8 mph - N/A   Overcast
2:56 AM 40.6 °F 33.0 °F 34.7 °F 79% 29.77 in 10.0 mi NW 13.8 mph - N/A   Overcast
3:15 AM 40.3 °F 31.6 °F 34.0 °F 78% 29.79 in 10.0 mi NW 17.3 mph 24.2 mph N/A   Overcast
3:20 AM 40.5 °F 31.8 °F 34.0 °F 78% 29.79 in 10.0 mi NW 17.3 mph 24.2 mph N/A   Overcast
3:37 AM 40.3 °F 32.2 °F 34.0 °F 78% 29.79 in 10.0 mi NW 15.0 mph - N/A   Overcast
3:55 AM 40.3 °F 31.3 °F 33.4 °F 77% 29.79 in 10.0 mi NW 18.4 mph 21.9 mph N/A   Overcast
4:15 AM 40.1 °F 31.0 °F 33.8 °F 78% 29.81 in 10.0 mi NW 18.4 mph 26.5 mph N/A   Overcast
4:16 AM 40.1 °F 31.3 °F 33.8 °F 78% 29.81 in 10.0 mi NW 17.3 mph 26.5 mph N/A   Overcast
4:35 AM 39.2 °F 30.5 °F 32.4 °F 76% 29.81 in 10.0 mi NW 16.1 mph 23.0 mph N/A   Overcast
4:36 AM 39.2 °F 30.2 °F 32.2 °F 76% 29.81 in 10.0 mi NW 17.3 mph 23.0 mph N/A   Overcast
4:59 AM 39.2 °F 29.6 °F 32.5 °F 77% 29.83 in 10.0 mi NW 19.6 mph 24.2 mph N/A   Overcast
5:16 AM 38.7 °F 29.1 °F 32.0 °F 77% 29.83 in 10.0 mi NW 18.4 mph 26.5 mph N/A   Overcast
5:36 AM 38.3 °F 27.8 °F 31.8 °F 77% 29.84 in 10.0 mi NW 21.9 mph 25.3 mph N/A   Overcast
5:55 AM 37.9 °F 27.9 °F 32.0 °F 79% 29.84 in 10.0 mi NNW 19.6 mph 26.5 mph N/A   Overcast
5:56 AM 37.9 °F 28.2 °F 32.0 °F 79% 29.85 in 10.0 mi NW 18.4 mph 25.3 mph N/A   Overcast
6:15 AM 37.9 °F 28.9 °F 32.0 °F 79% 29.85 in 10.0 mi NW 16.1 mph 23.0 mph N/A   Overcast
6:19 AM 37.8 °F 28.0 °F 32.0 °F 80% 29.85 in 10.0 mi NW 18.4 mph 23.0 mph N/A   Overcast
6:37 AM 37.8 °F 28.6 °F 32.0 °F 80% 29.85 in 10.0 mi NNW 16.1 mph 23.0 mph N/A   Overcast
6:55 AM 37.8 °F 28.6 °F 32.0 °F 80% 29.84 in 10.0 mi NNW 16.1 mph 21.9 mph N/A   Overcast
7:15 AM 37.4 °F 28.5 °F 32.0 °F 81% 29.86 in 10.0 mi NW 15.0 mph 24.2 mph N/A   Overcast
7:35 AM 37.4 °F 27.2 °F 32.0 °F 81% 29.87 in 10.0 mi NW 19.6 mph 26.5 mph N/A   Overcast
7:59 AM 36.9 °F 27.1 °F 30.9 °F 79% 29.90 in 10.0 mi NW 17.3 mph 24.2 mph N/A   Overcast
8:16 AM 36.9 °F 27.8 °F 30.7 °F 79% 29.90 in 10.0 mi NW 15.0 mph 27.6 mph N/A   Mostly Cloudy
8:36 AM 36.9 °F 27.5 °F 30.2 °F 77% 29.91 in 10.0 mi NW 16.1 mph 25.3 mph N/A   Mostly Cloudy
8:55 AM 36.7 °F 26.9 °F 29.3 °F 75% 29.94 in 10.0 mi NW 17.3 mph 21.9 mph N/A   Overcast
8:56 AM 36.7 °F 27.2 °F 29.3 °F 75% 29.93 in 10.0 mi NW 16.1 mph 21.9 mph N/A   Overcast
9:15 AM 36.5 °F 27.0 °F 29.8 °F 77% 29.94 in 10.0 mi NW 16.1 mph 26.5 mph N/A   Overcast
9:19 AM 36.5 °F 26.3 °F 29.8 °F 77% 29.94 in 10.0 mi NW 18.4 mph 26.5 mph N/A   Overcast
9:37 AM 36.5 °F 27.0 °F 30.2 °F 78% 29.93 in 10.0 mi NW 16.1 mph 20.7 mph N/A   Light Drizzle
9:55 AM 36.7 °F 28.0 °F 30.4 °F 78% 29.94 in 10.0 mi NNW 13.8 mph 20.7 mph N/A   Mostly Cloudy
10:15 AM 37.9 °F 29.6 °F 31.1 °F 76% 29.95 in 10.0 mi NW 13.8 mph - N/A   Mostly Cloudy
10:35 AM 37.8 °F 30.2 °F 30.7 °F 76% 29.96 in 10.0 mi NW 11.5 mph 24.2 mph N/A   Overcast
10:36 AM 37.9 °F 30.5 °F 30.9 °F 76% 29.96 in 10.0 mi NW 11.5 mph - N/A   Overcast
10:59 AM 38.3 °F 29.0 °F 30.2 °F 73% 29.97 in 10.0 mi NW 17.3 mph 20.7 mph N/A   Overcast
11:16 AM 38.5 °F 29.9 °F 30.2 °F 72% 29.97 in 10.0 mi NW 15.0 mph 25.3 mph N/A   Overcast
11:36 AM 39.2 °F 30.5 °F 30.0 °F 70% 29.97 in 10.0 mi NW 16.1 mph - N/A   Overcast
11:55 AM 38.5 °F 29.9 °F 30.7 °F 74% 29.97 in 10.0 mi NW 15.0 mph 18.4 mph N/A   Overcast
11:56 AM 38.5 °F 30.3 °F 30.7 °F 74% 29.97 in 10.0 mi NW 13.8 mph 18.4 mph N/A   Overcast
12:15 PM 38.3 °F 30.1 °F 31.3 °F 76% 29.97 in 10.0 mi NNW 13.8 mph 17.3 mph N/A   Overcast
12:19 PM 38.3 °F 29.7 °F 31.3 °F 76% 29.97 in 10.0 mi NW 15.0 mph - N/A   Overcast
12:37 PM 37.6 °F 29.1 °F 32.0 °F 80% 29.97 in 10.0 mi NW 13.8 mph 21.9 mph N/A   Overcast
12:56 PM 37.8 °F 29.4 °F 32.0 °F 80% 29.97 in 10.0 mi WNW 13.8 mph 18.4 mph N/A   Overcast
1:15 PM 38.7 °F 29.5 °F 30.6 °F 73% 29.97 in 10.0 mi NW 17.3 mph - N/A   Overcast
1:16 PM 38.7 °F 29.5 °F 30.6 °F 73% 29.98 in 10.0 mi NW 17.3 mph 21.9 mph N/A   Overcast
1:57 PM 37.6 °F 29.1 °F 30.2 °F 75% 29.98 in 10.0 mi WNW 13.8 mph 19.6 mph N/A   Overcast
2:16 PM 37.4 °F 28.5 °F 29.8 °F 74% 29.98 in 10.0 mi WNW 15.0 mph - N/A   Overcast
2:55 PM 37.2 °F 28.3 °F 28.8 °F 71% 30.00 in 10.0 mi WNW 15.0 mph 21.9 mph N/A   Overcast
2:56 PM 37.2 °F 28.7 °F 28.9 °F 72% 30.00 in 10.0 mi WNW 13.8 mph 21.9 mph N/A   Overcast
3:18 PM 36.5 °F 27.4 °F 29.7 °F 76% 30.00 in 10.0 mi West 15.0 mph 21.9 mph N/A   Overcast
3:36 PM 36.0 °F 26.0 °F 29.1 °F 76% 30.00 in 10.0 mi WNW 17.3 mph 21.9 mph N/A   Overcast
3:55 PM 35.6 °F 26.6 °F 28.8 °F 76% 30.00 in 10.0 mi WNW 13.8 mph 20.7 mph N/A   Overcast
3:56 PM 35.6 °F 26.2 °F 28.8 °F 76% 30.01 in 10.0 mi WNW 15.0 mph 20.7 mph N/A   Overcast
4:15 PM 35.1 °F 26.4 °F 28.6 °F 77% 30.01 in 10.0 mi WNW 12.7 mph - N/A   Overcast
4:16 PM 35.1 °F 25.5 °F 28.6 °F 77% 30.01 in 10.0 mi WNW 15.0 mph - N/A   Overcast
4:39 PM 34.9 °F 25.7 °F 27.5 °F 74% 30.01 in 10.0 mi WNW 13.8 mph - N/A   Overcast
4:56 PM 34.7 °F 26.4 °F 27.3 °F 74% 30.02 in 10.0 mi WNW 11.5 mph - N/A   Overcast
5:15 PM 34.7 °F 26.9 °F 26.6 °F 72% 30.03 in 10.0 mi WNW 10.4 mph - N/A   Overcast
5:35 PM 34.2 °F 26.2 °F 26.6 °F 74% 30.02 in 10.0 mi West 10.4 mph 16.1 mph N/A   Overcast
5:36 PM 34.2 °F 25.2 °F 26.6 °F 74% 30.02 in 10.0 mi West 12.7 mph 16.1 mph N/A   Overcast
5:58 PM 34.0 °F 25.0 °F 25.7 °F 72% 30.03 in 10.0 mi West 12.7 mph 16.1 mph N/A   Overcast
6:16 PM 33.8 °F 25.3 °F 24.8 °F 70% 30.02 in 10.0 mi WNW 11.5 mph 16.1 mph N/A   Overcast
6:35 PM 33.8 °F 25.8 °F 23.5 °F 66% 30.03 in 10.0 mi WNW 10.4 mph - N/A   Overcast
6:36 PM 33.8 °F 25.8 °F 23.4 °F 66% 30.03 in 10.0 mi WNW 10.4 mph - N/A   Overcast
6:55 PM 33.4 °F 24.8 °F 23.0 °F 66% 30.03 in 10.0 mi WNW 11.5 mph - N/A   Overcast
7:18 PM 33.1 °F 25.5 °F 21.7 °F 63% 30.04 in 10.0 mi WNW 9.2 mph - N/A   Overcast
7:37 PM 32.9 °F 24.7 °F 21.6 °F 63% 30.04 in 10.0 mi WNW 10.4 mph - N/A   Overcast
7:56 PM 32.5 °F 24.2 °F 21.0 °F 63% 30.04 in 10.0 mi WNW 10.4 mph 17.3 mph N/A   Overcast
8:15 PM 32.2 °F 22.7 °F 21.0 °F 63% 30.04 in 10.0 mi WNW 12.7 mph 18.4 mph N/A   Overcast
8:35 PM 32.0 °F 24.8 °F 21.0 °F 64% 30.04 in 10.0 mi WNW 8.1 mph - N/A   Mostly Cloudy
8:39 PM 32.0 °F 24.2 °F 21.2 °F 64% 30.05 in 10.0 mi WNW 9.2 mph - N/A   Mostly Cloudy
8:57 PM 31.5 °F 23.5 °F 20.3 °F 63% 30.05 in 10.0 mi WNW 9.2 mph - N/A   Mostly Cloudy
9:15 PM 30.9 °F 20.7 °F 20.8 °F 66% 30.06 in 10.0 mi WNW 13.8 mph 18.4 mph N/A   Scattered Clouds
9:16 PM 30.9 °F 21.2 °F 20.7 °F 66% 30.07 in 10.0 mi WNW 12.7 mph 18.4 mph N/A   Scattered Clouds
9:35 PM 30.6 °F 23.1 °F 20.3 °F 66% 30.07 in 10.0 mi WNW 8.1 mph - N/A   Clear
9:36 PM 30.6 °F 23.1 °F 20.5 °F 66% 30.07 in 10.0 mi WNW 8.1 mph - N/A   Clear
9:59 PM 30.2 °F 21.9 °F 19.9 °F 66% 30.07 in 10.0 mi West 9.2 mph - N/A   Clear
10:17 PM 29.7 °F 20.7 °F 19.2 °F 65% 30.07 in 10.0 mi WNW 10.4 mph - N/A   Clear
10:36 PM 28.9 °F 21.1 °F 18.5 °F 65% 30.08 in 10.0 mi West 8.1 mph - N/A   Scattered Clouds
10:55 PM 29.5 °F 19.9 °F 19.2 °F 66% 30.09 in 10.0 mi West 11.5 mph 18.4 mph N/A   Overcast
10:56 PM 29.5 °F 19.3 °F 19.0 °F 65% 30.09 in 10.0 mi WNW 12.7 mph 18.4 mph N/A   Overcast
11:15 PM 30.2 °F 21.3 °F 17.6 °F 60% 30.09 in 10.0 mi WNW 10.4 mph - N/A   Overcast
11:19 PM 30.2 °F 22.6 °F 18.0 °F 60% 30.09 in 10.0 mi WNW 8.1 mph - N/A   Overcast
11:37 PM 30.0 °F 19.5 °F 17.2 °F 59% 30.08 in 10.0 mi WNW 13.8 mph 17.3 mph N/A   Overcast
11:55 PM 29.7 °F 20.7 °F 17.6 °F 61% 30.08 in 10.0 mi WNW 10.4 mph - N/A   Overcast